Regional Weather Roundup
Issued by NWS

Home | Current Version | Previous Version | Graphics & Text | Print | Product List | Glossary On
Versions: 1 2 3 4 5 6 7 8 9 10 11 12 13 14 15 16 17 18 19 20 21 22 23 24 25 26 27 28 29 30 31 32 33 34 35 36 37 38 39 40 41 42 43 44 45 46 47 48 49 50
000
ASUS43 KOAX 230810
RWRNE

WEATHER ROUNDUP FOR NEBRASKA
NATIONAL WEATHER SERVICE OMAHA NE
200 AM CST FRI FEB 23 2018

NOTES: SATELLITE DATA IS BEING USED TO AUGMENT CLOUD COVER ABOVE
       12000 FEET.
       "FAIR" INDICATES FEW OR NO CLOUDS BELOW 12,000 FEET WITH NO
       SIGNIFICANT WEATHER AND/OR OBSTRUCTIONS TO VISIBILITY.


NEZ001>004-019>022-054>056-230900-
NEBRASKA PANHANDLE

CITY           SKY/WX    TMP DP  RH WIND       PRES   REMARKS
SCOTTSBLUFF    CLOUDY    10   7  87 CALM      30.10R
ALLIANCE       CLEAR     -3  -6  87 W6        30.08R WCI -15
CHADRON        PTCLDY    -5  -9  83 W5        30.16R WCI -16
GORDON         FLURRIES   6   3  84 CALM      30.10R
KIMBALL        CLOUDY    17  13  84 NW8       30.05S WCI   7
SIDNEY         CLOUDY    18  14  84 NW6       30.07S WCI  10
$$

NEZ057>060-069>072-079>082-230900-
SOUTHWEST NEBRASKA

CITY           SKY/WX    TMP DP  RH WIND       PRES   REMARKS
NORTH PLATTE   CLOUDY    12   6  77 NW5       30.15R WCI   4
IMPERIAL       CLOUDY    20  19  96 SW5       30.13S WCI  13
LEXINGTON      CLEAR     12   9  86 W6        30.17R WCI   3
MCCOOK         CLOUDY    20  19  96 W7        30.16S FOG     WCI  11
OGALLALA       CLOUDY    17  15  90 SW5       30.12R WCI  10
$$

NEZ005>010-023>029-035>040-094-230900-
NORTH CENTRAL NEBRASKA

CITY           SKY/WX    TMP DP  RH WIND       PRES   REMARKS
VALENTINE      CLOUDY    19  16  88 NW10      30.13R WCI   7
AINSWORTH      CLOUDY    15  14  96 NW9       30.11R WCI   3
BROKEN BOW     CLEAR      9   6  88 W8        30.12S WCI  -3
O`NEILL        CLEAR     15  13  95 W9        30.12R WCI   3
ORD            CLEAR     16  14  92 N3        30.14R
THEDFORD       CLOUDY    13  11  90 W6        30.12R WCI   4
$$

NEZ041-046>049-061>064-073>077-083>087-230900-
SOUTH CENTRAL NEBRASKA

CITY           SKY/WX    TMP DP  RH WIND       PRES   REMARKS
GRAND ISLAND   CLEAR     22  19  89 W8        30.17S WCI  12
AURORA         MOCLDY    25  22  89 W8        30.17S WCI  17
HASTINGS       CLOUDY    25  21  85 W7        30.18R WCI  17
HEBRON         MOCLDY    28  27  94 W3        30.21R
HOLDREGE       CLEAR     21  20  96 W9        30.16S WCI  11
KEARNEY        CLEAR     21  19  92 W8        30.17S WCI  11
YORK           PTCLDY    27  27 100 W7        30.17F WCI  19
$$

NEZ011>018-030>034-042>045-230900-
NORTHEAST NEBRASKA

CITY           SKY/WX    TMP DP  RH WIND       PRES   REMARKS
NORFOLK        CLOUDY    14  13  95 SW6       30.14R WCI   5
ALBION         FOG       16  14  92 CALM      30.16R VSB 3/4
BLAIR          CLOUDY    28  27  93 SW5       30.16R WCI  23
COLUMBUS       CLEAR     21  20  96 SW3       30.18S FOG
FREMONT        CLOUDY    27  26  96 W6        30.18R WCI  21
TEKAMAH        CLOUDY    27  25  92 W7        30.18R WCI  19
WAYNE          CLEAR     21  20  96 SW5       30.15R WCI  15
$$

NEZ050>053-065>068-078-088>093-230900-
SOUTHEAST NEBRASKA

CITY           SKY/WX    TMP DP  RH WIND       PRES   REMARKS
LINCOLN        CLOUDY    29  26  89 W6        30.20R WCI  23
OMAHA EPPLEY   CLOUDY    30  26  85 W8        30.18R WCI  22
BEATRICE       CLOUDY    31  30  94 NW7       30.20R WCI  24
FALLS CITY     CLOUDY    32  32 100 W6        30.19R WCI  26
NEBRASKA CITY  CLOUDY    32  32 100 W6        30.18S WCI  26
PLATTSMOUTH    CLOUDY    31  30  96 W8        30.18R WCI  24
$$

NEZ044-045-051>053-067-230900-
OMAHA AREA

CITY           SKY/WX    TMP DP  RH WIND       PRES   REMARKS
OMAHA EPPLEY   CLOUDY    30  26  85 W8        30.18R WCI  22
BLAIR          CLOUDY    28  27  93 SW5       30.16R WCI  23
FREMONT        CLOUDY    27  26  96 W6        30.18R WCI  21
MILLARD        CLOUDY    31  28  90 W6        30.18S WCI  25
OFFUTT AFB     CLOUDY    31  29  93 NW8       30.17S WCI  23
PLATTSMOUTH    CLOUDY    31  30  96 W8        30.18R WCI  24
WAHOO          CLOUDY    28  26  91 W7        30.19R WCI  21
$$




USA.gov is the U.S. government's official web portal to all federal, state and local government web resources and services.